FW2931 Weather Reports


Display with metric or nautical units.
time (UTC)temp
F
wind
direction
speed
MPH
gust
MPH
rain 1hr
in
rain 24hr
in
rain mn
in
humidity
%
barometer
mb
20260506062401 65 293 1.0 4.0 0.00 0.00 0.00 73 1011.2
20260506061854 65 315 2.0 0.0 0.00 0.00 0.00 73 1011.0
20260506061152 64 315 1.0 2.0 0.00 0.00 0.00 73 1010.8
20260506060641 64 315 2.0 2.0 0.00 0.00 0.00 73 1010.7
20260506060134 64 315 2.0 2.0 0.00 0.00 0.00 73 1011.0
20260506050953 66 293 1.0 2.0 0.00 0.00 0.00 70 1010.9
20260506050440 66 270 0.0 2.0 0.00 0.00 0.00 70 1010.9
20260506044910 65 248 1.0 4.0 0.00 0.00 0.00 70 1010.7
20260506044410 66 248 2.0 4.0 0.00 0.00 0.00 70 1010.8
20260506043850 66 248 0.0 4.0 0.00 0.00 0.00 71 1010.7
20260506043346 66 225 2.0 4.0 0.00 0.00 0.00 70 1010.7
20260506042829 66 225 2.0 4.0 0.00 0.00 0.00 70 1010.7
20260506042319 66 270 2.0 2.0 0.00 0.00 0.00 71 1010.8
20260506041812 66 270 0.0 2.0 0.00 0.00 0.00 70 1010.9
20260506041258 67 270 0.0 2.0 0.00 0.00 0.00 69 1010.8
20260506040748 67 270 0.0 2.0 0.00 0.00 0.00 68 1010.7
20260506035727 67 270 0.0 2.0 0.00 0.00 0.00 68 1011.1
20260506035221 67 270 1.0 2.0 0.00 0.00 0.00 69 1011.1
20260506034708 67 293 0.0 2.0 0.00 0.00 0.00 68 1011.3
20260506033648 67 270 0.0 2.0 0.00 0.00 0.00 68 1011.2
20260506033137 67 293 1.0 2.0 0.00 0.00 0.00 68 1011.2
20260506032117 68 293 2.0 2.0 0.00 0.00 0.00 67 1011.6
20260506031606 68 293 0.0 2.0 0.00 0.00 0.00 68 1011.9
20260506031057 68 315 1.0 2.0 0.00 0.00 0.00 68 1011.7
20260506030546 68 315 0.0 2.0 0.00 0.00 0.00 68 1011.9
20260506030051 68 315 0.0 2.0 0.00 0.00 0.00 68 1011.9
20260506025016 68 315 0.0 2.0 0.00 0.00 0.00 67 1012.1
20260506024507 68 315 1.0 2.0 0.00 0.00 0.00 66 1012.1
20260506023955 68 315 2.0 4.0 0.00 0.00 0.00 66 1012.0
20260506023448 68 315 2.0 4.0 0.00 0.00 0.00 66 1012.1
20260506022936 68 68 2.0 2.0 0.00 0.00 0.00 65 1012.4
20260506022425 69 68 0.0 4.0 0.00 0.00 0.00 65 1012.5
20260506021915 70 23 2.0 4.0 0.00 0.00 0.00 64 1012.3
20260506021418 71 293 1.0 4.0 0.00 0.00 0.00 62 1012.4
20260506020857 71 293 2.0 4.0 0.00 0.00 0.00 62 1012.4
20260506020344 71 293 2.0 4.0 0.00 0.00 0.00 62 1012.5
20260506015834 71 315 2.0 4.0 0.00 0.00 0.00 62 1012.7
20260506015324 70 315 3.0 4.0 0.00 0.00 0.00 63 1012.4
20260506014813 71 293 2.0 4.0 0.00 0.00 0.00 63 1012.7
20260506014307 70 270 1.0 4.0 0.00 0.00 0.00 64 1012.7
20260506013754 70 270 2.0 4.0 0.00 0.00 0.00 63 1012.6
20260506012734 71 315 3.0 6.0 0.00 0.00 0.00 62 1012.7
20260506011716 71 315 2.0 4.0 0.00 0.00 0.00 62 1012.4
20260506011204 71 315 2.0 4.0 0.00 0.00 0.00 62 1012.5
20260506010653 71 293 2.0 6.0 0.00 0.00 0.00 61 1012.6
20260506010148 71 23 2.0 6.0 0.00 0.00 0.00 60 1012.5
20260506005132 71 270 1.0 4.0 0.00 0.00 0.00 60 1012.4
20260506004102 71 225 1.0 4.0 0.00 0.00 0.00 60 1012.1
20260506003553 71 270 0.0 2.0 0.00 0.00 0.00 59 1012.2
20260506003045 71 248 1.0 4.0 0.00 0.00 0.00 60 1012.0
20260506002536 72 248 1.0 4.0 0.00 0.00 0.00 59 1011.9
20260506002021 71 270 1.0 2.0 0.00 0.00 0.00 60 1012.2
20260506001515 71 293 0.0 4.0 0.00 0.00 0.00 60 1011.9
20260506001001 72 293 1.0 4.0 0.00 0.00 0.00 59 1011.8
20260506000451 72 293 1.0 2.0 0.00 0.00 0.00 59 1011.8
20260505235944 71 293 0.0 2.0 0.00 0.00 0.00 60 1011.8
20260505235431 72 248 1.0 2.0 0.00 0.00 0.00 60 1011.7
20260505234920 72 270 1.0 2.0 0.00 0.00 0.00 60 1011.6
20260505234410 72 293 1.0 2.0 0.00 0.00 0.00 59 1011.6
20260505233901 72 248 1.0 2.0 0.00 0.00 0.00 59 1011.6
20260505233353 73 270 1.0 2.0 0.00 0.00 0.00 59 1011.3
20260505232852 73 248 1.0 2.0 0.00 0.00 0.00 59 1011.2
20260505232331 73 270 0.0 2.0 0.00 0.00 0.00 58 1011.2
20260505231820 73 270 1.0 2.0 0.00 0.00 0.00 57 1011.1
20260505231309 73 248 1.0 2.0 0.00 0.00 0.00 57 1010.9
20260505230802 73 248 1.0 2.0 0.00 0.00 0.00 57 1010.7
20260505230249 73 248 1.0 2.0 0.00 0.00 0.00 56 1011.0
20260505225739 73 248 1.0 2.0 0.00 0.00 0.00 58 1010.7
20260505225229 73 248 1.0 2.0 0.00 0.00 0.00 58 1010.4
20260505224720 73 248 0.0 2.0 0.00 0.00 0.00 58 1010.5
20260505224213 74 248 0.0 2.0 0.00 0.00 0.00 58 1010.7
20260505223658 74 248 1.0 2.0 0.00 0.00 0.00 57 1010.5
20260505223149 73 248 0.0 2.0 0.00 0.00 0.00 57 1010.6
20260505222639 74 248 0.0 2.0 0.00 0.00 0.00 57 1010.3
20260505222128 74 248 0.0 2.0 0.00 0.00 0.00 56 1010.3
20260505221621 74 248 0.0 2.0 0.00 0.00 0.00 56 1010.2
20260505221109 74 293 0.0 2.0 0.00 0.00 0.00 56 1010.0
20260505220557 74 270 0.0 2.0 0.00 0.00 0.00 55 1010.0
20260505220100 75 293 2.0 4.0 0.00 0.00 0.00 55 1009.9
20260505215538 75 270 1.0 4.0 0.00 0.00 0.00 55 1009.9
20260505215031 75 270 0.0 2.0 0.00 0.00 0.00 55 1009.8
20260505214518 75 293 1.0 4.0 0.00 0.00 0.00 55 1009.8
20260505213457 76 248 1.0 2.0 0.00 0.00 0.00 53 1009.8
20260505212440 78 248 1.0 4.0 0.00 0.00 0.00 49 1009.4
20260505211932 79 225 2.0 4.0 0.00 0.00 0.00 47 1009.4
20260505211416 80 225 2.0 4.0 0.00 0.00 0.00 46 1009.5
20260505210911 80 203 4.0 6.0 0.00 0.00 0.00 44 1009.2
20260505205848 82 225 4.0 6.0 0.00 0.00 0.00 42 1009.3
20260505205335 82 203 2.0 7.0 0.00 0.00 0.00 42 1009.2
20260505204315 83 225 2.0 6.0 0.00 0.00 0.00 41 1009.0
20260505203817 83 270 2.0 6.0 0.00 0.00 0.00 40 1008.9
20260505203257 83 225 2.0 7.0 0.00 0.00 0.00 41 1008.8
20260505202746 83 180 2.0 7.0 0.00 0.00 0.00 41 1008.8
20260505202236 84 225 1.0 4.0 0.00 0.00 0.00 40 1008.7
20260505201221 87 225 0.0 4.0 0.00 0.00 0.00 38 1008.8
20260505200708 84 225 2.0 4.0 0.00 0.00 0.00 39 1009.0
20260505200155 85 225 1.0 4.0 0.00 0.00 0.00 39 1008.8
20260505195134 86 225 1.0 2.0 0.00 0.00 0.00 37 1008.8
20260505194623 86 225 0.0 2.0 0.00 0.00 0.00 38 1009.0
20260505193604 85 225 2.0 2.0 0.00 0.00 0.00 38 1008.9
20260505193053 86 203 0.0 2.0 0.00 0.00 0.00 37 1009.0
20260505192033 84 203 0.0 4.0 0.00 0.00 0.00 41 1009.0
20260505191526 84 180 2.0 4.0 0.00 0.00 0.00 39 1009.0
20260505191012 84 225 2.0 4.0 0.00 0.00 0.00 40 1009.0
20260505190503 84 225 2.0 4.0 0.00 0.00 0.00 39 1009.0
20260505185952 84 158 2.0 4.0 0.00 0.00 0.00 39 1009.1
20260505185443 83 158 2.0 4.0 0.00 0.00 0.00 40 1009.2
20260505184422 85 158 1.0 4.0 0.00 0.00 0.00 38 1009.2
20260505183911 83 158 1.0 4.0 0.00 0.00 0.00 40 1009.4
20260505183402 84 158 1.0 4.0 0.00 0.00 0.00 39 1009.5
20260505182852 84 158 0.0 6.0 0.00 0.00 0.00 38 1009.8
20260505182345 84 203 0.0 6.0 0.00 0.00 0.00 38 1009.7
20260505181322 83 203 1.0 4.0 0.00 0.00 0.00 39 1009.7
20260505180811 82 180 3.0 6.0 0.00 0.00 0.00 39 1009.9
20260505180314 82 225 3.0 6.0 0.00 0.00 0.00 40 1009.8
20260505175754 82 180 2.0 6.0 0.00 0.00 0.00 39 1010.0
20260505175240 82 158 2.0 4.0 0.00 0.00 0.00 40 1010.0
20260505174730 82 203 2.0 4.0 0.00 0.00 0.00 40 1009.9
20260505174220 82 225 2.0 6.0 0.00 0.00 0.00 40 1010.2
20260505173715 81 158 2.0 7.0 0.00 0.00 0.00 41 1010.2
20260505173203 81 225 2.0 7.0 0.00 0.00 0.00 41 1010.3
20260505172655 81 135 3.0 6.0 0.00 0.00 0.00 41 1010.1
20260505171630 80 158 2.0 7.0 0.00 0.00 0.00 41 1010.5
20260505170613 80 225 2.0 7.0 0.00 0.00 0.00 42 1010.7
20260505170100 79 203 3.0 7.0 0.00 0.00 0.00 43 1010.7
20260505165549 79 225 4.0 7.0 0.00 0.00 0.00 44 1010.7
20260505165039 80 225 2.0 8.0 0.00 0.00 0.00 44 1010.8
20260505164528 79 225 5.0 9.0 0.00 0.00 0.00 44 1011.1
20260505164021 78 135 4.0 9.0 0.00 0.00 0.00 46 1011.2
20260505163508 77 225 5.0 9.0 0.00 0.00 0.00 46 1011.2
20260505162958 78 180 5.0 11.0 0.00 0.00 0.00 46 1011.5
20260505161938 78 225 4.0 9.0 0.00 0.00 0.00 46 1011.7
20260505161431 77 248 4.0 9.0 0.00 0.00 0.00 47 1011.8
20260505153306 75 158 4.0 9.0 0.00 0.00 0.00 49 1012.3
20260505152757 74 225 4.0 9.0 0.00 0.00 0.00 50 1012.3
20260505152249 74 225 5.0 9.0 0.00 0.00 0.00 50 1012.1
20260505151736 73 203 6.0 8.0 0.00 0.00 0.00 51 1012.3
20260505151226 74 158 2.0 7.0 0.00 0.00 0.00 50 1012.1
20260505150716 73 180 2.0 6.0 0.00 0.00 0.00 50 1012.2
20260505150206 73 180 2.0 6.0 0.00 0.00 0.00 50 1012.3
20260505140518 71 90 2.0 4.0 0.00 0.00 0.00 57 1012.5
20260505124745 64 68 2.0 2.0 0.00 0.00 0.00 66 1013.4
20260505123721 62 45 2.0 2.0 0.00 0.00 0.00 69 1013.2
20260505123212 62 23 1.0 2.0 0.00 0.00 0.00 70 1013.1
20260505122702 62 0 1.0 2.0 0.00 0.00 0.00 71 1013.4
20260505121641 60 338 2.0 2.0 0.00 0.00 0.00 74 1013.4
20260505121130 59 0 1.0 2.0 0.00 0.00 0.00 76 1013.5
20260505120620 59 0 1.0 2.0 0.00 0.00 0.00 76 1013.5
20260505120110 59 0 0.0 2.0 0.00 0.00 0.00 75 1013.4
20260505115603 59 0 0.0 2.0 0.00 0.00 0.00 75 1013.4
20260505115050 58 0 0.0 2.0 0.00 0.00 0.00 76 1013.6
20260505114029 58 0 0.0 2.0 0.00 0.00 0.00 77 1013.1
20260505113520 57 0 1.0 2.0 0.00 0.00 0.00 78 1013.1
20260505112500 57 293 0.0 2.0 0.00 0.00 0.00 79 1013.0
20260505111949 56 293 0.0 2.0 0.00 0.00 0.00 79 1012.9
20260505111440 56 315 2.0 2.0 0.00 0.00 0.00 80 1013.1
20260505110421 56 293 0.0 2.0 0.00 0.00 0.00 80 1012.9
20260505101747 57 293 1.0 2.0 0.00 0.00 0.00 77 1012.2
20260505101250 57 293 2.0 2.0 0.00 0.00 0.00 77 1012.1
20260505100727 57 293 2.0 2.0 0.00 0.00 0.00 77 1012.2
20260505100224 57 315 2.0 2.0 0.00 0.00 0.00 77 1012.1
20260505095720 57 315 2.0 2.0 0.00 0.00 0.00 78 1012.0
20260505095154 57 293 2.0 2.0 0.00 0.00 0.00 77 1011.9
20260505094649 57 293 2.0 2.0 0.00 0.00 0.00 77 1012.1
20260505094136 57 293 2.0 4.0 0.00 0.00 0.00 77 1012.0
20260505092607 57 315 2.0 2.0 0.00 0.00 0.00 78 1012.0
20260505091545 57 293 0.0 2.0 0.00 0.00 0.00 78 1012.2
20260505091035 57 315 2.0 2.0 0.00 0.00 0.00 78 1012.1
20260505090525 56 338 1.0 2.0 0.00 0.00 0.00 79 1012.0
20260505090015 56 338 1.0 2.0 0.00 0.00 0.00 79 1012.0
20260505085508 56 338 2.0 2.0 0.00 0.00 0.00 79 1012.2
20260505084955 57 338 0.0 2.0 0.00 0.00 0.00 77 1012.1
20260505084444 57 338 1.0 2.0 0.00 0.00 0.00 77 1012.2
20260505083424 57 293 1.0 2.0 0.00 0.00 0.00 77 1011.8
20260505082917 57 293 0.0 2.0 0.00 0.00 0.00 77 1011.7
20260505081854 57 270 0.0 2.0 0.00 0.00 0.00 77 1011.9
20260505080834 57 293 0.0 2.0 0.00 0.00 0.00 77 1011.8
20260505080327 57 293 0.0 2.0 0.00 0.00 0.00 76 1011.7
20260505075814 58 293 2.0 2.0 0.00 0.00 0.00 76 1011.9
20260505075304 57 315 1.0 2.0 0.00 0.00 0.00 76 1011.8
20260505074753 58 315 0.0 2.0 0.00 0.00 0.00 76 1011.5
20260505074243 57 315 1.0 2.0 0.00 0.00 0.00 77 1011.6
20260505073736 58 315 1.0 2.0 0.00 0.00 0.00 77 1011.7
20260505073223 57 315 0.0 2.0 0.00 0.00 0.00 77 1011.5
20260505072712 57 315 0.0 2.0 0.00 0.00 0.00 78 1011.7
20260505072203 57 315 1.0 2.0 0.00 0.00 0.00 78 1011.6
20260505071652 57 315 2.0 2.0 0.00 0.00 0.00 78 1011.6
20260505071145 57 315 1.0 2.0 0.00 0.00 0.00 78 1011.5
20260505070632 58 315 0.0 2.0 0.00 0.00 0.00 78 1011.7